Location: Ulup?nar
(36.4534°N, 30.4323°E)
Time: 15:12:41
(UTC+00:00)

Daily predictions for brighter satellites

Satellite Brightness Start Highest point End
(mag) Time Altitude Azimuth Time Altitude Azimuth Time Altitude Azimuth
Centaur D AC-25 4.3 17:20:23 10° SW 17:25:11 39° SSE 17:41:26 10° E
Cosmos 1697 Rocket 2.8 17:37:58 10° NNW 17:43:33 63° ENE 17:49:05 10° SSE
USA 186 1.8 17:41:30 10° SSE 17:44:49 83° E 17:48:10 10° N
Cosmos 2251 Rocket 3.7 17:40:46 10° S 17:45:52 53° ESE 17:51:01 10° NNE
COSMOS 2406 3.7 17:42:03 10° S 17:47:22 40° ESE 17:52:42 10° NE
Cosmos 44 Rocket 4.2 17:43:17 10° NW 17:47:52 45° WSW 17:52:19 10° S
Cosmos 1674 3.9 17:47:08 10° SE 17:49:42 20° E 17:52:16 10° NE
CSL-04 Rocket 3.7 17:46:20 10° SSE 17:51:32 66° ENE 17:56:49 10° N
Cosmos 1743 Rocket 4.5 17:48:23 10° NNW 17:52:44 52° W 17:57:02 10° S
Meteor 1-18 Rocket 4.3 17:47:52 10° S 17:53:45 75° E 17:59:34 10° NNE
Cosmos 1975 2.7 17:52:55 10° N 17:56:49 72° E 18:00:38 10° SSE
MOS 1-B Rocket 4.1 17:51:24 10° SSE 17:57:50 69° ENE 18:03:35 10° N
Cosmos 1842 4.4 17:55:03 10° SE 17:57:55 22° E 18:00:46 10° NE
Cosmos 2195 Rocket 4.5 17:52:36 10° S 17:58:42 81° E 18:04:51 10° N
Cosmos 1328 Rocket 3.4 17:55:09 10° S 17:59:25 75° E 18:03:42 10° N
Cosmos 1980 Rocket 2.9 17:54:56 10° N 18:00:15 39° ENE 18:05:19 11° SE
Cosmos 407 Rocket 3.5 17:55:45 10° SSW 18:00:59 85° ESE 18:06:13 10° NNE
CSL-04 Debris 4.2 17:58:19 10° SSE 18:03:45 87° WSW 18:09:11 10° NNW
USA 59 Rocket 3.3 18:01:19 10° W 18:03:54 13° WSW 18:06:51 10° SW
Cosmos 1092 Rocket 4.0 18:01:28 10° S 18:07:47 79° E 18:14:08 10° N
Okean-O 3.0 18:07:48 11° SE 18:11:50 46° ENE 18:16:03 10° N
CZ-4C R/B 3.7 18:10:45 10° NNE 18:14:46 48° E 18:18:44 10° S
EXPRESS MD2 4.0 18:10:56 10° WSW 18:14:54 46° NW 18:17:25 10° NE
Genesis I 3.9 18:13:05 10° SW 18:16:28 50° WNW 18:19:54 10° NNE
Cosmos 1954 Rocket 4.4 18:11:32 10° S 18:16:31 43° ESE 18:21:30 10° NNE
NOSS 3-4 (A) 4.1 18:13:03 10° NW 18:20:18 79° WSW 18:28:09 12° SSE
NOSS 3-4 (C) 4.1 18:13:06 10° NW 18:20:22 80° WSW 18:28:07 12° SSE
Terra 3.3 18:20:23 14° ESE 18:23:07 22° ENE 18:26:41 10° NNE
PSLV R/B 4.0 18:20:46 10° S 18:24:18 60° W 18:27:48 10° NNW
BREEZE-M DEB (TANK) 2.7 18:21:54 10° WSW 18:24:36 76° NNW 18:31:33 10° NE
Cosmos 676 Rocket 4.4 18:20:50 10° S 18:25:49 42° ESE 18:30:49 10° NNE
Cosmos 1515 Rocket 3.5 18:24:02 10° S 18:28:18 69° E 18:32:36 10° NNE
CZ-4B R/B 4.3 18:24:06 10° S 18:29:01 41° W 18:34:01 10° NNW
Cosmos 1190 Rocket 4.0 18:24:24 10° SSW 18:29:40 82° ESE 18:35:00 10° NNE
Tiangong -0.6 18:27:17 10° WNW 18:30:13 33° N 18:33:08 10° ENE
Cosmos 1707 2.9 18:27:50 17° SSE 18:30:19 44° E 18:33:46 10° NNE
Okean O Rocket 2.6 18:31:27 10° S 18:35:40 45° W 18:39:54 10° NNW
SeaSat 1 3.2 18:32:33 18° ESE 18:35:42 38° ENE 18:40:14 10° N
Cosmos 1633 Rocket 3.5 18:31:41 10° NNW 18:36:01 61° W 18:40:17 10° S
USA 234 3.7 18:31:33 10° NE 18:38:01 67° NW 18:44:28 10° WSW
OPS 6432 4.2 18:38:12 10° NNW 18:41:18 82° WSW 18:42:55 28° SSE
IRS-1A Rocket 4.4 18:40:30 20° SE 18:44:15 58° ENE 18:49:38 10° N
CZ-4 R/B 4.3 18:43:33 10° WSW 18:44:41 11° W 18:45:48 10° WNW
Meteor 2-12 Rocket 4.4 18:38:49 10° S 18:44:58 85° E 18:51:09 10° N
Cosmos 1766 3.5 18:42:13 10° NNW 18:45:56 62° W 18:48:43 17° S
FALCON 9 R/B 4.1 18:43:35 10° WSW 18:47:35 22° SSW 18:52:04 16° SSE
Cosmos 1470 Rocket 3.6 18:43:36 10° N 18:47:57 75° W 18:51:09 18° S
IRIDIUM 104 4.4 18:44:05 10° N 18:49:19 78° W 18:54:01 13° S
MOS 1 Rocket 4.4 18:47:29 22° ESE 18:50:09 36° ENE 18:55:00 10° N
Cosmos 2360 Rocket 4.4 18:49:15 10° NNE 18:51:24 12° NE 18:53:32 10° ENE
Atlas Centaur 2 3.2 18:47:06 10° WSW 18:55:08 56° S 19:01:23 18° ESE
Cosmos 2333 Rocket 4.4 18:53:36 10° NNE 18:55:54 12° NE 18:58:12 10° ENE
ERS-1 Rocket 3.1 18:53:15 26° SE 18:55:56 58° ENE 19:00:52 10° N
In-Cosmos 22 4.2 18:54:01 19° S 18:58:03 61° E 19:03:33 10° NNE
Cosmos 2082 Rocket 3.7 18:53:15 10° SW 18:58:33 39° WNW 19:03:52 10° N
SL-16 R/B 3.4 18:54:41 10° N 18:59:32 28° ENE 19:02:05 20° E
Resurs 01 Rocket 4.0 18:57:17 10° SW 19:00:21 18° W 19:03:25 10° NW
Spot 2 Rocket 3.9 18:58:06 28° SE 19:00:21 47° ENE 19:05:12 10° N
Cosmos 2369 3.7 18:55:29 10° NNW 19:01:15 84° WSW 19:04:36 26° SSE
Cosmos 1763 Rocket 3.4 18:57:45 10° NNW 19:03:01 90° WSW 19:05:44 29° SSE
SPOT 5 2.9 19:03:34 24° S 19:06:03 63° WSW 19:10:21 10° NNW
SL-14 R/B 4.4 19:07:06 25° E 19:07:06 25° E 19:09:55 10° NNE
Cosmos 1441 Rocket 3.2 19:03:23 10° N 19:06:56 54° E 19:07:31 47° ESE
Lacrosse 5 rocket 3.8 19:07:12 10° W 19:08:56 12° WSW 19:10:38 10° SW
Centaur D-1AR AC-39 4.0 19:04:44 10° SSW 19:15:43 15° ESE 19:20:01 10° ESE
RESURS DK-1 4.5 19:06:45 10° NNE 19:09:02 14° NE 19:09:59 14° ENE
Centaur D AC-29 3.7 19:05:36 10° WSW 19:11:44 52° S 19:56:57 10° ESE
Centaur D AC-29 3.7 19:05:37 10° WSW 19:11:44 52° S 19:56:57 10° ESE
Centaur D AC-29 3.7 19:05:37 10° WSW 19:11:45 52° S 19:56:57 10° ESE
Centaur D AC-29 3.7 19:05:36 10° WSW 19:11:45 52° S 19:56:57 10° ESE
Cosmos 1933 Rocket 3.6 19:07:51 10° N 19:12:17 82° W 19:14:13 33° S
Cosmos 1470 3.0 19:11:36 10° NNW 19:15:14 59° W 19:16:30 36° SSW
ATLAS 2AS CENTAUR R/B 4.4 19:10:57 10° N 19:15:52 20° NE 19:20:28 11° E
IRS-1C Rocket 4.3 19:13:04 25° S 19:16:09 67° WSW 19:21:24 10° NNW
Cosmos 1300 4.2 19:16:37 10° NNE 19:18:53 21° ENE 19:18:53 21° ENE
Cosmos 1908 3.1 19:19:20 10° N 19:22:55 74° W 19:23:31 57° SSW
Meteor 1-22 Rocket 4.4 19:18:28 10° N 19:24:04 62° E 19:26:09 39° SE
Ariane Rocket 2.9 19:22:59 40° SSE 19:24:48 78° ENE 19:29:54 10° N
Cosmos 381 Rocket 4.4 19:18:25 10° NNW 19:24:49 84° ENE 19:27:36 36° SSE
Cosmos 1346 Rocket 4.4 19:23:56 10° NNE 19:26:36 22° ENE 19:26:36 22° ENE
Cosmos 468 Rocket 4.0 19:24:49 10° NNW 19:30:02 78° WSW 19:31:49 42° S
SPOT 3 Rocket 3.4 19:31:38 45° SSE 19:33:17 84° ENE 19:38:28 10° NNW
Cosmos 1356 Rocket 3.6 19:33:35 53° E 19:33:35 53° E 19:37:36 10° NNE
Cosmos 1850 Rocket 3.9 19:33:14 43° S 19:34:55 70° ESE 19:40:07 10° NNE
Cosmos 1758 3.9 19:34:16 10° N 19:37:41 42° ENE 19:37:41 42° ENE
Cosmos 1707 Rocket 3.6 19:39:08 59° ESE 19:39:19 60° E 19:43:42 10° NNE
Meteor 1-21 4.4 19:38:50 46° SE 19:40:13 58° E 19:45:55 10° NNE
Cosmos 1655 Rocket 4.0 19:38:03 35° S 19:40:59 82° E 19:47:24 10° N
S3M 4.0 19:35:26 10° N 19:41:50 86° W 19:44:25 39° S
Cosmos 1980 Rocket 3.9 19:39:25 10° NW 19:43:58 25° WSW 19:47:06 16° SW
Cosmos 2322 Rocket 2.9 19:38:58 10° N 19:44:18 41° ENE 19:45:40 35° E
USA 281 4.4 19:45:53 23° E 19:48:31 31° ENE 19:54:06 10° N
Spot 1 4.3 19:44:34 10° N 19:49:07 79° WNW 19:50:22 49° SSW
SJ 16-02 2.3 19:52:11 34° ENE 19:52:11 34° ENE 19:55:07 10° NNE
Cosmos 2278 3.7 19:47:27 10° NNW 19:53:10 78° WSW 19:54:32 53° S
Cosmos 1741 Rocket 4.0 19:51:36 43° SSW 19:53:24 83° WNW 19:58:43 10° NNE
Landsat 5 3.7 19:54:27 10° N 19:58:25 62° WNW 19:58:50 57° WSW
MetOp-A 3.9 19:59:26 66° SE 20:00:07 79° ENE 20:05:23 10° N
Terra 3.0 19:59:05 28° SW 20:00:27 33° W 20:04:44 10° NNW
Cosmos 1400 Rocket 4.3 20:00:07 26° WSW 20:01:14 31° WNW 20:04:42 10° NNW
Cosmos 968 Rocket 3.3 20:01:07 68° S 20:01:48 85° ESE 20:06:59 10° NNE
Okean 3 3.7 20:03:17 57° NE 20:03:17 57° NE 20:06:44 10° NNE
Cosmos 2237 4.3 19:59:12 10° NNW 20:04:54 71° WSW 20:05:58 57° SSW
Tiangong 0.2 20:04:03 10° WNW 20:05:19 22° WNW 20:05:19 22° WNW
Cosmos 1733 Rocket 3.1 20:03:07 10° N 20:07:15 75° NNE 20:07:15 75° NNE
Cosmos 2228 Rocket 3.7 20:07:19 48° WSW 20:08:02 54° W 20:12:31 10° N
Cosmos 1244 Rocket 4.5 20:08:14 55° SE 20:09:09 62° E 20:15:20 10° NNE
Cosmos 2219 Rocket 3.5 20:08:12 10° N 20:13:01 28° ENE 20:14:05 26° ENE
SeaSat 1 4.0 20:12:15 23° SW 20:13:10 24° WSW 20:17:09 10° NW
Cosmos 1315 Rocket 4.1 20:15:49 33° NE 20:15:49 33° NE 20:18:14 10° NNE
ATLAS CENTAUR R/B 2.5 20:17:21 35° NW 20:17:21 35° NW 20:20:11 10° NNE
Meteor 2-10 Rocket 4.0 20:13:06 10° NNW 20:18:32 56° W 20:19:27 49° SW
H-2A R/B 4.3 20:23:31 23° NE 20:23:31 23° NE 20:26:16 10° NNE
Cosmos 1953 3.9 20:23:36 10° N 20:25:44 27° NNE 20:25:44 27° NNE
Okean 1-7 3.6 20:28:24 53° NNE 20:28:24 53° NNE 20:31:46 10° N
Cosmos 1455 4.2 20:28:31 10° N 20:29:57 21° NNE 20:29:57 21° NNE
CZ-2C R/B 4.0 20:29:47 10° N 20:33:28 61° N 20:33:28 61° N
Cosmos 2360 Rocket 2.0 20:30:31 10° NNW 20:36:13 86° ENE 20:36:22 84° ESE
Cosmos 841 Rocket 4.5 20:35:46 10° NW 20:40:31 36° W 20:40:43 35° WSW
Cosmos 2333 Rocket 2.1 20:35:14 10° NNW 20:41:01 86° ENE 20:41:09 84° ESE
SL-08 R/B 4.3 20:41:16 76° S 20:41:48 90° E 20:47:55 10° N
SL-16 R/B 3.1 20:38:29 10° NW 20:43:37 36° WSW 20:43:56 36° WSW
Atlas Centaur 2 3.2 20:36:15 10° W 20:43:36 49° SSW 20:43:36 49° SSW
RESURS DK-1 3.9 20:43:06 10° NW 20:45:34 31° WNW 20:45:34 31° WNW
Cosmos 839 Rocket 4.1 20:43:47 10° NNW 20:50:21 61° ENE 20:51:07 57° E
Cosmos 1703 Rocket 4.4 20:55:40 50° N 20:55:40 50° N 20:59:01 10° N
Cosmos 2322 4.4 21:02:04 10° N 21:07:29 44° ENE 21:07:35 44° ENE
ATLAS 2AS CENTAUR R/B 2.4 21:00:48 10° NNW 21:07:34 83° WSW 21:07:52 80° SSW
Cosmos 2237 Rocket 4.5 21:05:18 10° NNE 21:08:22 15° NE 21:10:35 12° ENE
Cosmos 2227 Rocket 4.4 21:11:48 13° ENE 21:11:48 13° ENE 21:13:03 10° ENE
Cosmos 2333 4.4 21:07:39 10° NNW 21:12:55 63° W 21:12:55 63° W
ARIANE 5 R/B 4.1 21:17:31 32° NW 21:17:31 32° NW 21:20:14 10° NNW
Meteor 2-5 Rocket 4.4 21:21:05 46° ENE 21:21:05 46° ENE 21:26:04 10° NNE
SL-24 R/B - RUBIN 2 4.5 21:13:58 10° NNW 21:20:28 67° ENE 21:20:40 67° ENE
Cosmos 1745 Rocket 4.0 21:20:33 73° WSW 21:20:49 74° W 21:27:11 10° N
COSMOS 2455 3.0 21:25:53 63° ENE 21:25:53 63° ENE 21:31:06 10° NNE
Cosmos 2322 Rocket 3.8 21:23:32 10° NW 21:27:28 24° W 21:27:28 24° W
SJ 16-02 3.8 21:28:53 14° WNW 21:29:34 15° WNW 21:31:59 10° NNW
Cosmos 1570 Rocket 4.4 21:24:26 10° NNW 21:29:00 64° N 21:29:00 64° N
Cosmos 2297 Rocket 3.1 21:31:24 39° ENE 21:31:24 39° ENE 21:35:25 10° NE
USA 281 3.6 21:32:45 47° WSW 21:32:45 47° WSW 21:39:01 10° NW
Nadezhda 1 Rocket 4.1 21:30:57 10° NNW 21:37:05 64° W 21:37:05 64° W
COSMOS 2428 2.9 21:41:07 10° NNW 21:46:15 69° NNE 21:46:15 69° NNE
GEOS 3 Rocket 3.9 21:46:10 10° NNE 21:50:25 61° NNE 21:50:25 61° NNE
Cosmos 2219 Rocket 3.3 21:51:48 10° NW 21:55:47 34° WNW 21:55:47 34° WNW
Cosmos 371 Rocket 4.2 22:00:27 45° NNW 22:00:27 45° NNW 22:04:01 10° N
Cosmos 2263 Rocket 4.2 22:08:47 16° E 22:08:47 16° E 22:11:18 10° ENE
Cosmos 1503 Rocket 4.5 22:11:39 59° NNW 22:11:39 59° NNW 22:16:11 10° NNE
CZ-4C R/B 2.8 22:11:44 43° NNW 22:11:44 43° NNW 22:15:55 10° NNE
CENTAUR R/B 3.2 22:13:10 38° E 22:13:10 38° E 22:17:52 10° NE
SL-12 R/B(2) 4.2 22:12:47 55° SE 22:13:26 57° ESE 22:22:10 10° NE
Cosmos 1777 Rocket 4.4 22:16:03 60° N 22:16:03 60° N 22:20:26 10° NNE
Okean 2 Rocket 4.3 22:17:14 10° N 22:20:12 40° NNE 22:20:12 40° NNE
H-2A R/B 3.6 22:20:53 10° N 22:23:29 32° NNW 22:23:29 32° NNW
Cosmos 1295 Rocket 4.4 22:28:41 74° E 22:28:41 74° E 22:34:37 10° N
Cosmos 2184 Rocket 3.9 22:30:27 86° ESE 22:30:29 87° E 22:36:53 10° N
Resurs 1-4 Rocket 4.5 22:29:19 10° ENE 22:31:02 11° E 22:31:27 11° E
Cosmos 2098 Rocket 4.4 22:32:41 10° NNW 22:38:55 53° W 22:38:55 53° W
SL-16 R/B 4.0 22:39:14 10° N 22:43:56 26° ENE 22:47:05 16° ESE
NOSS 0 Rocket 4.3 22:38:03 10° NNW 22:43:21 53° W 22:43:21 53° W
Cosmos 2154 Rocket 3.8 22:46:40 86° WSW 22:46:47 86° W 22:53:04 10° N
Meteor 1-21 Rocket 4.4 22:48:21 63° E 22:48:21 63° E 22:53:58 10° NNE
Cosmos 1025 Rocket 4.1 22:49:51 42° NNE 22:49:51 42° NNE 22:52:48 10° N
NOSS 3-2 (A) 3.7 22:51:17 48° E 22:51:17 48° E 22:55:53 10° NE
Cosmos 2237 Rocket 2.3 22:47:24 10° NNW 22:52:21 67° NW 22:52:21 67° NW
Cosmos 2227 Rocket 2.3 22:53:35 64° NW 22:53:35 64° NW 22:59:04 10° NNE
Cosmos 1898 Rocket 4.5 22:54:42 37° E 22:54:42 37° E 22:58:58 10° NE
Cosmos 2327 Rocket 4.5 22:55:11 65° ESE 22:55:31 66° E 23:01:32 10° NNE
Meteor 2-11 Rocket 4.3 22:56:44 83° WSW 22:56:50 84° W 23:02:56 10° N
Nimbus 7 Rocket 4.5 22:59:17 10° N 23:05:18 65° WNW 23:05:40 63° W
Cosmos 1980 4.2 23:00:09 10° NNW 23:04:39 48° WNW 23:04:39 48° WNW
USA 267 4.0 23:03:10 10° ENE 23:09:03 35° SE 23:09:13 35° SE
SL-8 Rocket 4.4 23:09:19 45° ESE 23:10:23 50° E 23:16:18 10° NNE
Cosmos 2219 3.1 23:12:45 83° WNW 23:12:45 83° WNW 23:18:23 10° NNE
Cosmos 2297 Rocket 3.8 23:13:10 21° WNW 23:14:17 22° WNW 23:18:39 10° N
Cosmos 962 Rocket 4.4 23:17:34 67° SSE 23:18:27 81° E 23:24:49 10° N
CRYOSAT 2 4.4 23:16:23 10° N 23:20:49 72° NNW 23:20:49 72° NNW
CZ-2D R/B 3.0 23:19:33 10° NNE 23:24:28 37° E 23:25:12 35° ESE
CZ-2C R/B 4.2 23:24:39 10° NNE 23:29:29 33° E 23:30:31 31° ESE
IDEFIX/ARIANE 42P 2.6 23:27:10 10° NNE 23:32:23 65° ESE 23:32:47 62° SE
Cosmos 2341 Rocket 3.9 23:31:26 63° S 23:32:30 84° E 23:38:44 10° N
SL-4 R/B 2.9 23:28:29 10° NW 23:32:39 51° NE 23:34:12 33° E
NPP 3.7 23:29:24 10° NNE 23:34:47 66° ESE 23:35:24 61° SE
Aureole 1 Rocket 4.2 23:40:08 29° NNW 23:40:08 29° NNW 23:42:29 10° N
Cosmos 1544 Rocket 4.4 23:37:16 10° N 23:41:31 43° E 23:42:11 40° ESE
MSX 3.9 23:38:14 10° NNE 23:43:58 72° ESE 23:45:07 56° SSE
Cosmos 1975 Rocket 3.9 23:49:29 39° NW 23:49:29 39° NW 23:52:58 10° N
MOZ.5/SAFIR/RUBIN 5/SL-8 3.7 23:49:47 69° WNW 23:49:47 69° WNW 23:54:10 10° NNW
Cosmos 2263 Rocket 2.4 23:50:27 52° W 23:51:13 56° WNW 23:56:42 10° NNE
Cosmos 864 Rocket 4.4 23:51:14 54° SSW 23:52:49 85° W 23:59:11 10° N
Cosmos 1461 3.0 23:54:22 65° NNE 23:54:22 65° NNE 23:57:46 10° NNE
